User: anonymous   Login
Location: Canyam�s
(41.5996°N, 2.4450°E)
Time: 02:59:10
(UTC+00:00)
Language:

SAR-Lupe-2 - Orbit

View from above orbital plane
View from above orbital plane
View from above satellite
View from above satellite

Ground track
Ground track

The orbit data is extracted from the following two-line orbital elements,

1 31797U 07030A   20215.85301135 0.00000600  00000-0  22315-4 0    09
2 31797  98.1272  88.6566 0003029 178.3205 181.6793 15.27542251    06
Epoch (UTC): 02 August 2020 20:28:20
Eccentricity: 0.0003029
inclination: 98.1272°
perigee height: 481 km
apogee height: 485 km
right ascension of ascending node: 88.6566°
argument of perigee: 178.3205°
revolutions per day: 15.27542251
mean anomaly at epoch: 181.6793°
orbit number at epoch: 0

The dashed part of the orbit path shows where the satellite is in the earth's shadow,  

DLR